Regional Weather Roundup
Issued by NWS Bismarck, ND

Home | Current Version | Previous Version | Text Only | Print | Product List | Glossary On
Versions: 1 2 3 4 5 6 7 8 9 10 11 12 13 14 15 16 17 18 19 20 21 22 23 24 25 26 27 28 29 30 31 32 33 34 35 36 37 38 39 40 41 42 43 44 45 46 47 48 49 50
650
ASUS43 KBIS 230702
RWRBIS

NWR BROADCAST TEXT
NATIONAL WEATHER SERVICE BISMARCK ND
100 AM CST THU NOV 23 2017

NOTE: "FAIR" INDICATES FEW OR NO CLOUDS BELOW 12,000 FEET WITH NO
SIGNIFICANT WEATHER AND/OR OBSTRUCTIONS TO VISIBILITY.


CITY           SKY/WX    TMP DP  RH WIND       PRES   REMARKS
WILLISTON      CLOUDY    24  21  88 S3        29.90F
MINOT          CLOUDY    25  21  85 SW7       29.91F WCI  17
MINOT AFB      CLOUDY    21  19  90 S7        29.90F WCI  13
BISMARCK       CLOUDY    23  19  85 CALM      29.97F
DICKINSON      CLEAR     31  30  96 S7        29.91F
GARRISON         N/A     26  23  88 SW3       29.93F
HETTINGER ARPT CLOUDY    34  31  88 NW5       29.98F
JAMESTOWN      CLOUDY    29  24  82 W6        29.95F
CARRINGTON     CLOUDY    28  25  86 W7        29.95F
HAZEN          FAIR      21  21 100 CALM      29.96F
LINTON           N/A     23  19  86 SW5       30.00S WCI  17
MANDAN         FAIR      27  25  93 SW3       29.96F
OAKES            N/A     23  21  93 NW8       29.97S WCI  14
RUGBY            N/A     23  21  93 W5        29.92F WCI  17
STANLEY        FAIR      23  23 100 CALM      29.92F
TIOGA          FAIR      19  19 100 SW5       29.91S WCI  13
WATFORD CITY   FAIR      23  23 100 CALM      29.89F
$$

CITY           SKY/WX    TMP DP  RH WIND       PRES   REMARKS
GRAND FORKS    CLOUDY    20  18  92 W5        29.94F WCI  13
GRAND FORKS AF CLOUDY    20  17  90 NW3       29.94F
DEVILS LAKE    CLOUDY    29  26  89 W9        29.93F
FARGO          CLOUDY    20  15  81 W5        29.96R WCI  13
CANDO          CLOUDY    27  27 100 W9        29.93F WCI  17
CAVALIER       FAIR      16  16 100 SW5       29.93F WCI   9
GRAFTON        FAIR      19  19 100 CALM      29.96F
GWINNER          N/A     25  19  80 NW16      29.96S WCI  12
LANGDON        PTSUNNY   19  19 100 W9        29.91F WCI   9
ROLLA          CLOUDY    25  25 100 SW9       29.89F WCI  15
WALHALLA       FAIR      19  19 100 CALM      29.92F
$$

CITY           SKY/WX    TMP DP  RH WIND       PRES   REMARKS
ABERDEEN       CLOUDY    24  22  91 N7        29.99S WCI  16
MOBRIDGE       CLOUDY    29  27  92 SE3       29.97R
BUFFALO          N/A     43  38  82 W9        29.93F
RAPID CITY     CLEAR     42  35  76 NW9       30.06F
GLASGOW        CLOUDY    34  33  96 S8        29.86F
SIDNEY         CLEAR     24  23  96 CALM      29.90F
WOLF POINT     CLOUDY    27  24  89 CALM      29.88F
GLENDIVE       CLEAR     38  34  85 S7        29.92F
MILES CITY     CLOUDY    45  40  82 SW7       29.97F
BAKER          CLEAR     47  41  80 SW15      29.97F
$$

CITY           SKY/WX    TMP DP  RH WIND       PRES   REMARKS
BILLINGS       CLOUDY    54  39  57 SW17      30.06F
GREAT FALLS    CLOUDY    55  39  54 S12       29.98S
$$





USA.gov is the U.S. government's official web portal to all federal, state and local government web resources and services.